Mt. Pocono, PA

4:18 AM EST on December 11, 2019 (GMT -0500)
Pocono Mountains Municipal

Weather History for KMPO - October, 2019

Change the Weather History Date:

Wednesday, October 2, 2019

  Actual Average Record
Temperature  
Mean Temperature 70 °F 52 °F  
Max Temperature 82 °F 62 °F 89 °F (1927)
Min Temperature 58 °F 43 °F 27 °F (1958)
Degree Days  
Heating Degree Days 0 13  
Month to date heating degree days 0 25  
Since 1 July heating degree days 178 293  
Cooling Degree Days 5 0  
Month to date cooling degree days 5 0  
Year to date cooling degree days 348 313  
Growing Degree Days 20 (Base 50)    
Moisture  
Dew Point 65 °F    
Average Humidity 87    
Maximum Humidity 100    
Minimum Humidity 56    
Precipitation  
Precipitation 0.22 in 0.17 in 4.25 in (1929)
Month to date precipitation 0.22 0.33  
Year to date precipitation 36.44 36.67  
Sea Level Pressure  
Sea Level Pressure 29.90 in    
Wind  
Wind Speed 9 mph ()    
Max Wind Speed 22 mph    
Max Gust Speed 29 mph    
Visibility 9.2 miles    
Events Rain    
T = Trace of Precipitation, MM = Missing Value Source: Averaged Metar Reports

Daily Weather History Graph

Daily Weather History Graph

Search for Another Location

Airport or City:

Astronomy

Oct. 02, 2019 Rise Set
Actual Time 6:58 AM EDT 6:42 PM EDT
Civil Twilight 6:31 AM EDT 7:09 PM EDT
Nautical Twilight 5:59 AM EDT 7:41 PM EDT
Astronomical Twilight 5:27 AM EDT 8:13 PM EDT
Moon 11:23 AM EDT (10/2) 9:32 PM EDT (10/2)
Length of Visible Light 12h 38m
Length of Day
11h 43m
Waxing Crescent, 20% of the Moon is Illuminated
Oct 2
Waxing Crescent
Oct 5
First Quarter
Oct 13
Full
Oct 21
Last Quarter
Oct 27
New

Hourly Weather History & Observations

Time (EDT) Temp. Heat Index Dew Point Humidity Pressure Visibility Wind Dir Wind Speed Gust Speed Precip Events Conditions
12:53 AM 66.0 °F - 64.9 °F 96% 29.91 in 9.0 mi West 5.8 mph - N/A   Clear
1:53 AM 66.9 °F - 66.0 °F 97% 29.91 in 8.0 mi West 6.9 mph - N/A   Clear
2:53 AM 66.9 °F - 66.0 °F 97% 29.89 in 9.0 mi West 10.4 mph - N/A   Clear
3:53 AM 66.9 °F - 66.0 °F 97% 29.89 in 9.0 mi West 12.7 mph - N/A   Clear
4:53 AM 66.9 °F - 66.0 °F 97% 29.88 in 8.0 mi West 12.7 mph - N/A   Clear
5:53 AM 66.0 °F - 66.0 °F 100% 29.88 in 7.0 mi West 11.5 mph - N/A   Scattered Clouds
6:53 AM 66.0 °F - 64.9 °F 96% 29.89 in 10.0 mi West 10.4 mph - N/A   Clear
7:53 AM 66.9 °F - 66.0 °F 97% 29.90 in 9.0 mi West 10.4 mph - N/A   Clear
8:53 AM 70.0 °F - 66.9 °F 90% 29.90 in 10.0 mi West 11.5 mph - N/A   Clear
9:53 AM 72.0 °F - 66.0 °F 81% 29.89 in 10.0 mi West 11.5 mph - N/A   Clear
10:53 AM 77.0 °F - 66.0 °F 69% 29.87 in 10.0 mi WSW 15.0 mph - N/A   Partly Cloudy
11:53 AM 79.0 °F - 66.0 °F 64% 29.85 in 10.0 mi WSW 11.5 mph 20.7 mph N/A   Clear
12:53 PM 81.0 °F 82.7 °F 64.9 °F 58% 29.85 in 10.0 mi West 16.1 mph 23.0 mph N/A   Mostly Cloudy
1:53 PM 80.1 °F 81.9 °F 64.9 °F 60% 29.84 in 10.0 mi West 12.7 mph 28.8 mph N/A   Overcast
2:53 PM 81.0 °F 82.5 °F 64.0 °F 56% 29.83 in 10.0 mi West 15.0 mph 25.3 mph N/A   Unknown
3:53 PM 80.1 °F 81.9 °F 64.9 °F 60% 29.82 in 10.0 mi West 10.4 mph - N/A   Overcast
4:53 PM 73.0 °F - 70.0 °F 90% 29.83 in 10.0 mi NW 3.5 mph - 0.02 in Rain Light Rain
5:30 PM 70.0 °F - 70.0 °F 100% 29.90 in 3.0 mi NNW 10.4 mph - 0.15 in Rain Light Rain
5:53 PM 69.1 °F - 66.9 °F 93% 29.87 in 5.0 mi WNW 11.5 mph - 0.19 in Rain Light Rain
6:53 PM 68.0 °F - 68.0 °F 100% 29.88 in 10.0 mi NW 9.2 mph - 0.00 in   Mostly Cloudy
7:49 PM 66.2 °F - 64.4 °F 94% 29.94 in 10.0 mi NW 15.0 mph 24.2 mph N/A   Mostly Cloudy
7:53 PM 66.9 °F - 64.0 °F 90% 29.92 in 10.0 mi NW 15.0 mph 24.2 mph N/A   Scattered Clouds
8:51 PM 64.4 °F - 62.6 °F 94% 29.98 in 10.0 mi NW 9.2 mph - N/A   Overcast
8:53 PM 64.0 °F - 63.0 °F 96% 29.95 in 10.0 mi NW 8.1 mph - N/A   Overcast
9:53 PM 63.0 °F - 62.1 °F 97% 29.97 in 10.0 mi NNE 15.0 mph - N/A   Overcast
10:23 PM 62.1 °F - 59.0 °F 90% 30.01 in 10.0 mi North 12.7 mph - N/A   Overcast
10:40 PM 61.0 °F - 57.9 °F 90% 30.01 in 10.0 mi North 8.1 mph - N/A   Mostly Cloudy
10:53 PM 61.0 °F - 59.0 °F 93% 29.98 in 10.0 mi North 9.2 mph - N/A   Mostly Cloudy
11:53 PM 60.1 °F - 57.0 °F 90% 29.99 in 10.0 mi North 9.2 mph - N/A   Overcast